Presure
219 252 234 248 247 202 260 183 169 98 168 199 76 100 89 133 184 177 144 199 101 193 190 81 96 81 86 108 172 83 86 97 119 149 198 97 108 104 95 96 101 97 136
254 234 307 278 234 275 274 263 185 219 213 205 157 172 193 178 169 181 108 170 115 178 170 145 98 92 81 90 83 93 109 91 107 89 122 99 98 94 94 99 101 93 94
244 277 304 256 263 252 181 226 192 189 199 75 195 82 173 150 167 71 188 191 184 109 88 75 190 106 166 90 87 88 81 86 87 93 91 119 100 97 102 100 101 101 101
279 307 272 262 247 219 305 232 229 172 178 174 142 176 104 133 184 149 190 161 166 179 177 189 186 187 138 93 185 174 91 93 93 93 83 86 100 107 91 92 93 86 97
324 358 269 246 244 221 257 239 243 193 159 168 180 187 162 113 182 81 147 148 91 187 178 183 187 181 137 178 155 142 95 89 92 85 84 96 92 88 89 89 88 119 100
221 251 249 249 253 206 181 192 188 189 160 161 166 163 182 170 165 178 180 188 189 100 190 179 171 180 179 182 177 143 137 97 139 103 91 96 94 88 141 90 84 88 82
244 235 261 260 200 189 197 184 176 179 180 177 176 193 185 180 101 76 87 173 91 172 96 169 167 100 131 152 173 174 127 109 169 151 166 115 100 101 103 93 88 97 100
240 256 192 225 205 196 167 189 171 163 167 163 166 190 174 167 163 174 163 126 181 66 122 135 169 101 166 120 129 134 185 165 137 124 129 108 88 87 96 97 97 95 93
245 265 211 213 202 186 197 184 162 174 171 170 179 164 165 181 172 179 189 185 191 164 179 78 108 190 188 145 76 126 169 80 79 147 136 110 90 125 96 98 101 113 93
251 230 205 186 191 184 202 167 183 176 163 182 183 175 168 161 162 173 178 173 181 183 117 162 163 178 168 97 109 167 125 123 131 128 142 139 158 135 140 164 155 179 74
218 195 201 191 196 164 194 166 189 168 189 165 170 194 184 178 171 182 165 184 181 178 176 179 172 82 92 170 150 172 124 141 105 129 152 127 149 150 135 133 132 141 128
206 212 179 207 188 184 191 175 187 179 174 168 170 159 171 187 179 172 173 174 177 174 172 177 181 178 82 160 173 181 186 167 137 143 108 136 140 174 168 169 182 117 128
199 206 206 200 190 188 191 176 185 186 183 180 179 170 169 172 189 171 168 169 157 176 168 169 175 173 165 159 177 187 178 169 77 91 175 161 142 144 108 86 173 183 176
215 195 179 198 200 203 191 175 190 182 166 190 178 176 177 157 154 191 165 173 171 182 187 185 175 172 168 180 187 164 171 181 185 173 177 98 176 180 181 173 132 169 167
193 198 185 203 189 209 189 162 179 193 178 178 187 190 166 175 155 162 163 185 188 175 190 189 182 170 193 197 183 166 159 178 181 173 177 178 119 166 169 182 141 160 170
210 185 177 199 184 183 191 193 164 174 185 169 179 156 182 170 172 169 162 162 168 162 165 156 168 170 163 162 164 165 175 171 172 177 162 174 169 175 171 177 174 174 191
185 188 197 177 202 181 180 194 167 176 171 182 183 174 166 178 173 178 179 162 161 157 163 176 173 160 163 163 165 180 162 167 172 167 186 183 183 161 185 181 170 185 179
171 163 191 199 180 199 198 197 189 151 177 170 197 174 183 177 177 168 169 180 181 182 169 168 178 177 182 177 173 171 181 174 170 183 171 179 176 178 172 192 176 182 200
177 180 170 192 180 171 190 183 184 189 160 177 181 195 189 177 164 185 177 182 175 185 180 174 181 176 172 176 178 170 167 167 183 173 169 178 178 190 179 168 173 204 190
162 169 181 190 181 179 171 188 180 181 175 193 172 190 167 169 170 191 187 175 165 174 169 168 167 172 164 162 169 173 169 167 177 163 180 194 190 185 197 184 187 176 171
185 168 162 180 191 184 176 170 188 180 178 168 185 179 193 167 161 166 178 169 188 179 180 175 177 169 174 172 173 182 185 195 179 200 178 176 178 176 170 162 179 195 193
231 191 174 187 178 182 188 180 174 190 191 190 163 173 187 167 190 178 166 171 171 174 169 177 165 168 176 168 177 173 180 185 179 187 200 177 176 210 203 200 187 183 178
198 221 216 181 177 163 183 189 184 177 174 172 170 191 169 177 177 174 178 185 178 173 176 185 174 187 181 184 182 195 199 179 193 181 190 198 193 198 187 186 179 164 167
210 200 203 226 184 171 190 181 178 187 182 176 173 172 180 200 184 187 189 181 183 158 177 180 181 184 169 178 186 178 181 181 203 211 191 190 198 173 172 160 176 165 156
193 209 199 205 218 198 183 188 171 154 188 180 178 176 174 171 167 168 169 199 185 198 197 156 194 193 200 200 200 198 198 195 198 192 177 162 163 171 167 165 166 154 160
182 195 198 207 198 210 222 197 192 168 184 183 185 179 178 179 175 171 167 170 173 167 171 170 171 167 163 166 170 161 171 169 170 171 171 170 175 175 173 167 169 171 168
Wind_Speed
59 53 45 33 27 28 26 31 32 36 39 49 30 40 43 45 54 48 42 42 32 35 33 24 32 22 26 35 36 24 25 33 41 45 44 29 38 34 26 27 30 26 50
56 43 27 25 24 24 28 23 32 39 39 43 49 52 46 58 47 51 46 42 47 33 38 38 40 35 26 31 26 31 38 29 45 26 45 34 32 29 28 32 33 25 26
50 42 26 25 24 20 26 23 30 30 34 34 42 41 55 46 41 24 40 40 39 38 35 24 34 38 42 35 33 33 25 28 27 33 30 49 37 34 38 34 33 33 34
48 41 31 30 25 21 27 21 28 25 17 32 43 48 47 50 49 46 44 47 41 44 43 40 39 38 44 39 38 41 38 38 36 35 28 30 41 47 29 29 31 29 34
27 16 30 25 23 17 24 27 36 35 43 43 42 45 46 52 54 40 45 48 44 46 42 37 42 41 53 42 41 45 43 37 40 34 33 41 36 31 34 35 34 45 38
10 14 22 23 28 33 29 30 30 35 42 35 39 39 51 48 42 47 44 42 44 59 44 42 42 41 44 45 43 58 51 44 58 50 42 45 43 37 43 41 32 36 29
9 19 19 30 33 34 36 35 28 33 35 40 40 50 50 51 38 26 28 48 31 45 51 42 45 35 60 55 47 45 51 42 51 52 53 49 49 51 55 48 42 49 50
14 13 17 43 43 34 34 39 37 42 45 48 46 40 50 51 50 52 46 38 47 22 46 48 46 50 49 49 44 51 48 53 62 45 54 50 42 41 50 55 54 52 48
17 18 40 52 43 33 48 43 38 40 42 44 41 47 49 51 54 54 41 43 48 44 47 37 54 43 44 49 37 63 51 37 40 57 52 51 44 58 50 53 59 55 50
16 38 50 34 41 39 61 34 53 54 44 45 53 54 53 49 50 51 54 53 50 47 39 46 50 43 49 56 64 51 66 66 66 63 65 66 62 66 67 61 65 54 41
38 30 53 41 51 32 59 39 57 44 50 49 48 49 55 57 47 52 50 54 55 52 48 47 47 41 47 47 46 51 40 66 59 48 60 66 64 70 69 67 66 66 60
28 50 28 56 42 44 58 41 62 55 57 44 50 40 48 55 56 53 55 53 51 51 49 49 48 45 43 48 48 47 48 55 64 55 64 60 60 57 65 64 57 72 72
30 53 54 44 47 45 62 41 61 67 66 67 63 57 51 57 61 53 50 50 45 55 48 52 50 53 45 52 46 50 50 54 50 52 59 63 72 66 71 55 60 61 63
41 38 35 44 50 61 65 41 64 69 42 66 64 62 65 43 40 64 48 56 56 63 61 65 58 56 52 53 53 56 57 56 54 60 58 61 63 61 60 66 78 68 69
31 46 35 54 41 66 55 42 41 73 58 57 65 73 54 60 47 48 51 46 54 51 59 62 61 55 46 45 49 60 62 58 57 55 56 56 58 61 61 61 65 75 73
47 35 38 55 47 41 59 69 44 52 71 51 64 46 74 63 57 56 55 55 60 52 53 54 52 52 54 57 56 56 61 58 58 58 61 56 58 60 65 67 68 74 71
37 41 45 43 58 51 48 64 51 51 50 71 76 66 54 76 64 71 72 55 57 55 57 69 70 60 61 62 60 65 61 58 57 63 59 61 64 71 63 68 71 66 70
43 45 46 54 48 60 66 68 67 49 57 57 77 67 75 73 73 63 63 73 73 77 71 66 74 74 76 71 68 64 66 62 65 66 66 65 65 65 68 68 70 66 63
48 48 50 53 51 52 60 56 62 64 56 60 65 74 75 70 60 78 73 74 71 78 78 69 76 71 67 71 72 68 67 69 74 68 69 71 70 68 65 68 68 59 60
49 50 53 56 58 58 58 68 64 65 61 69 61 75 61 65 63 75 83 77 67 70 67 66 66 70 69 68 71 74 72 71 75 72 75 74 67 62 64 65 64 65 67
55 55 55 59 61 64 65 65 71 70 68 62 70 69 85 68 69 70 70 66 80 74 78 74 77 73 75 75 73 83 81 82 74 83 70 68 67 67 68 70 67 60 60
47 61 62 65 63 65 68 70 71 75 75 77 68 69 80 72 86 78 72 74 74 73 74 81 74 74 81 76 83 79 83 82 76 80 81 72 71 77 69 65 64 63 65
53 52 60 67 68 64 71 72 75 77 75 75 76 88 72 75 77 78 81 90 83 79 81 89 80 91 84 86 86 85 85 83 85 74 75 75 71 70 66 65 65 68 68
59 59 59 59 73 72 78 76 78 80 79 79 79 78 81 94 84 86 89 83 87 74 81 81 81 83 77 81 85 78 78 78 83 80 77 75 74 69 69 75 68 72 79
68 64 65 65 64 76 81 82 77 69 84 84 84 83 82 82 81 81 80 90 82 94 93 79 93 89 91 87 84 81 80 78 77 76 79 81 80 75 75 76 75 82 81
74 74 71 70 70 71 72 84 86 78 88 88 89 86 86 86 86 85 84 84 85 83 83 83 82 83 83 82 82 82 81 81 80 80 80 80 79 79 80 82 81 79 79
Wind_Direction
301 297 289 273 254 257 222 236 233 241 221 219 260 219 240 246 249 254 240 243 241 237 233 235 229 234 230 228 227 235 236 232 230 230 231 233 235 233 240 243 241 243 239
301 296 284 227 241 209 213 204 227 209 205 209 229 228 223 244 249 250 237 243 235 234 242 237 234 228 241 235 236 234 228 235 228 241 233 234 235 239 239 239 241 245 246
298 293 254 223 203 209 225 201 213 218 220 253 213 247 236 233 231 251 239 233 236 249 241 240 237 237 234 233 240 240 240 239 237 236 241 237 236 239 240 244 245 245 246
297 288 199 193 200 206 186 190 185 202 208 224 238 231 241 237 228 237 230 243 241 240 239 234 237 234 231 237 236 231 241 242 240 240 240 242 237 236 252 253 251 245 252
321 272 185 202 192 163 164 167 161 196 223 220 228 221 226 242 235 257 249 242 248 233 241 238 231 233 233 233 235 235 239 240 239 242 243 242 244 244 246 247 247 244 251
304 162 187 185 173 149 194 164 180 178 224 228 227 229 226 238 244 238 242 242 233 245 235 236 233 230 236 234 233 233 238 241 235 240 247 245 246 244 246 247 251 250 257
177 167 184 172 172 198 163 186 191 202 200 205 212 216 217 222 250 251 244 240 233 240 246 234 234 237 233 235 233 231 236 237 236 238 238 240 243 245 247 250 250 254 255
186 203 215 159 169 181 236 175 202 226 224 221 222 207 218 229 236 231 245 244 236 262 253 243 236 248 235 240 239 236 243 233 240 241 242 242 243 247 244 246 249 250 251
206 216 165 156 168 206 163 188 238 213 221 229 215 228 231 222 231 229 231 240 237 243 243 231 248 245 242 243 251 239 235 245 244 242 245 248 253 246 247 248 251 249 251
194 170 169 206 193 210 167 231 188 209 241 220 226 220 233 238 242 237 231 239 237 237 245 236 238 240 235 251 246 237 243 243 244 244 242 247 244 248 248 248 252 250 267
176 197 181 198 186 235 181 235 190 228 202 242 240 218 220 227 237 232 244 234 237 242 242 241 239 237 241 238 243 244 251 244 247 252 246 247 246 248 250 252 252 253 254
203 181 245 187 205 220 193 235 197 216 226 246 238 247 233 221 225 240 240 239 238 241 243 244 244 246 244 243 247 250 248 241 245 252 251 251 251 250 250 252 255 255 257
229 195 194 206 208 220 204 233 211 207 217 224 228 234 237 235 223 240 245 248 242 244 251 252 247 248 240 240 253 246 247 244 256 255 244 249 251 252 254 264 257 256 254
211 219 249 222 210 205 209 233 208 216 241 222 230 230 231 246 246 230 249 248 250 250 250 248 248 250 247 257 252 242 245 245 241 247 247 255 251 251 251 254 257 257 258
241 219 243 218 240 205 219 242 238 211 225 231 227 223 241 236 245 246 249 250 252 250 246 249 247 251 249 237 241 249 250 248 247 251 251 255 257 253 254 257 257 255 256
220 243 243 224 243 241 219 219 240 227 222 241 231 241 227 239 239 242 251 248 250 248 248 243 251 246 247 248 249 250 257 256 257 258 249 256 252 258 257 258 255 256 263
250 243 241 242 229 242 237 226 242 241 234 229 232 238 240 237 242 244 244 248 245 249 252 255 253 251 254 255 256 252 250 256 258 254 261 262 265 252 266 258 258 265 262
257 259 241 237 247 235 233 228 232 247 244 242 229 237 235 238 242 243 242 244 246 242 247 250 252 255 256 258 261 259 262 261 258 267 257 261 259 262 261 271 261 265 269
256 249 251 238 241 247 241 243 239 238 244 245 244 237 239 239 244 241 242 242 245 244 245 249 251 253 255 258 258 258 259 259 267 260 258 264 263 272 263 264 265 267 265
256 255 250 239 241 242 244 236 244 243 239 245 241 242 243 242 247 241 242 246 249 250 250 252 251 256 250 251 255 259 256 256 263 257 265 270 270 268 273 266 265 263 263
251 252 251 251 243 240 242 244 235 240 242 242 245 245 247 244 245 247 254 249 252 254 255 257 257 255 258 257 258 262 264 268 264 268 263 263 262 260 258 260 264 264 262
261 252 253 249 249 246 243 245 248 241 238 240 243 240 244 244 248 250 248 252 250 252 250 254 252 255 259 259 262 258 263 265 262 267 271 262 260 273 269 265 263 262 262
262 259 253 249 250 250 247 242 242 246 248 247 248 242 244 244 244 245 247 250 250 251 254 257 255 260 259 260 262 265 264 263 268 263 266 267 267 267 263 263 263 261 263
265 260 257 255 248 250 247 246 247 245 244 245 247 248 247 246 248 249 251 248 251 253 252 254 256 259 254 258 261 258 261 262 266 266 266 265 266 258 258 258 262 259 261
269 263 259 257 254 248 247 246 249 252 244 247 248 248 248 249 250 250 250 252 251 255 256 255 258 258 260 261 262 261 262 262 263 263 261 258 258 259 257 256 257 261 261
272 266 262 257 253 252 252 248 246 251 247 246 246 250 251 250 250 251 253 254 253 254 253 253 253 254 256 257 257 258 258 258 258 258 258 259 260 259 259 258 259 261 261